Wind_Speed
17 19 20 21 20 20 21 21 22 23 23 23 23 23 23 23 24 25 25 26 27 27 28 28 29 29 28 28 29 30 31 31 30 30 30 31 30 30 31 31 32 32 32
17 18 19 19 19 20 20 21 22 22 22 22 22 22 22 23 23 24 25 26 26 26 26 27 27 28 28 28 29 29 30 29 29 28 29 29 29 30 30 30 31 31 32
17 17 18 18 18 19 20 20 21 22 21 21 22 22 22 22 23 23 24 25 25 26 26 26 26 27 27 27 28 28 28 29 29 29 29 29 29 30 30 30 30 31 31
16 17 17 17 18 18 19 19 20 20 21 21 22 21 22 23 23 23 24 24 25 25 25 25 26 26 27 27 29 29 29 29 29 28 29 30 30 30 31 31 30 30 31
16 17 18 18 17 18 18 19 19 20 20 21 20 20 21 22 22 23 23 23 24 24 25 25 26 27 28 29 29 29 29 29 28 28 29 30 31 30 30 30 31 31 31
17 18 18 17 17 17 18 18 19 19 19 19 20 20 21 22 22 22 22 23 24 25 25 26 27 28 29 29 29 29 29 29 29 29 30 31 31 32 32 32 32 32 32
17 18 17 17 18 17 18 18 18 18 19 19 20 20 21 22 22 23 24 26 26 26 26 27 28 29 29 29 29 29 29 29 29 29 29 30 31 31 31 32 32 32 31
17 17 17 18 18 19 19 18 18 18 18 19 20 20 21 22 23 24 25 27 27 28 27 28 29 29 30 29 29 28 29 29 30 29 29 29 28 28 29 30 30 30 31
17 17 17 18 18 18 18 18 18 18 18 19 19 20 21 22 24 25 26 28 28 28 28 29 29 29 29 29 28 28 28 28 29 29 28 28 27 27 27 27 28 28 28
17 17 17 17 17 18 18 18 18 18 18 18 20 21 22 23 24 25 27 28 28 28 28 29 29 29 28 28 27 27 27 27 27 26 26 25 25 26 27 26 26 26 26
16 17 17 17 17 17 17 18 18 18 19 19 21 22 23 24 26 27 28 28 28 28 29 29 29 29 28 27 26 25 25 24 24 24 23 24 24 24 24 25 25 25 26
16 16 16 16 16 17 18 19 19 19 19 20 21 22 24 25 26 27 28 28 29 29 29 29 28 27 27 26 25 24 24 23 22 22 22 23 23 23 23 23 23 23 24
16 16 16 16 17 17 18 19 19 20 20 21 22 23 24 26 26 27 27 28 29 29 29 28 28 27 27 26 25 24 24 23 22 22 22 22 22 22 22 22 22 23 23
15 15 15 16 17 17 18 19 20 20 21 22 23 24 25 26 27 27 28 28 29 29 29 29 28 27 27 26 25 24 24 23 22 21 22 22 22 22 22 21 21 22 21
13 13 14 15 16 17 19 20 20 20 21 22 24 25 26 27 27 27 28 29 30 30 30 30 29 28 27 26 26 26 26 24 23 22 22 22 21 21 21 21 20 20 20
12 13 14 15 16 17 18 19 20 21 22 23 24 26 26 27 27 28 29 29 30 30 30 30 29 28 27 27 27 26 25 24 23 23 22 22 22 21 20 20 20 20 20
12 12 13 15 16 18 18 19 21 21 22 24 25 26 27 28 28 29 29 30 30 31 31 30 29 29 28 27 27 26 26 25 24 24 23 22 21 21 20 19 19 19 18
11 12 13 15 16 17 18 19 21 22 23 25 26 27 28 28 29 29 30 30 31 31 31 30 29 29 28 27 27 27 27 26 25 24 24 23 21 20 19 18 17 17 15
11 11 13 14 16 17 18 20 22 23 24 26 27 29 29 29 29 30 30 30 31 31 31 31 30 29 28 28 28 28 28 27 26 26 25 24 22 20 18 17 16 15 14
10 11 13 14 16 17 18 20 22 24 25 27 28 29 30 29 29 30 31 31 31 32 32 31 31 30 29 28 28 28 29 29 28 27 26 24 22 20 18 16 14 13 12
9 11 13 14 16 17 19 20 22 24 25 27 28 30 30 30 31 31 32 31 32 32 32 31 30 30 30 29 29 29 29 29 29 28 26 24 22 20 18 16 14 13 12
9 11 13 14 16 17 19 20 22 24 25 27 28 29 30 31 31 32 32 32 32 32 32 32 31 30 29 29 29 29 30 30 29 27 26 24 23 21 19 17 15 13 12
9 11 13 14 16 17 19 20 22 24 25 27 28 29 31 32 33 32 32 32 33 33 33 32 32 31 30 30 30 30 30 30 29 28 26 24 23 21 19 17 15 13 13
9 11 12 14 15 17 18 20 22 23 25 27 28 30 31 32 33 34 33 34 33 33 33 33 32 31 31 31 31 31 31 31 30 29 27 25 23 21 19 17 16 14 13
9 10 12 13 15 16 18 19 21 23 25 27 28 30 31 32 33 34 34 34 34 34 33 33 33 32 32 32 32 32 32 31 30 29 27 25 23 21 20 18 17 15 14
9 10 12 13 14 16 17 19 21 23 25 27 28 29 31 33 33 34 34 35 35 34 34 34 33 33 33 33 33 33 33 31 30 29 27 25 23 21 20 19 18 17 16
Wind_Direction
306 305 304 306 306 305 305 307 308 308 308 309 307 306 306 306 305 305 304 301 300 299 296 294 294 292 291 290 288 286 285 283 282 279 276 275 274 272 271 267 265 264 263
311 309 308 309 308 309 310 311 311 312 313 312 310 310 311 310 309 308 307 305 304 301 298 296 295 295 294 292 291 290 288 286 285 282 279 277 274 273 271 267 265 265 264
314 313 312 312 314 314 314 314 316 317 318 317 315 315 314 313 312 311 310 307 306 304 300 299 298 298 297 296 296 294 290 288 286 284 282 279 275 272 270 268 267 266 266
318 319 321 322 322 321 319 320 320 320 320 320 319 318 317 317 317 315 313 311 310 308 306 303 301 301 300 298 297 294 290 288 286 283 281 279 277 274 270 269 269 268 267
323 324 325 326 326 325 324 323 323 323 323 323 323 323 322 321 319 318 317 318 317 315 312 308 306 305 302 300 297 294 292 290 286 283 280 278 276 275 272 271 269 269 269
327 328 329 328 329 329 327 325 325 326 326 327 327 326 325 324 323 323 323 324 321 318 315 311 310 308 306 303 299 296 292 289 286 283 282 280 279 278 275 272 270 269 268
330 331 332 331 332 332 330 328 328 328 330 330 330 327 326 326 327 325 324 323 321 319 316 314 312 310 308 305 302 299 295 291 287 285 285 283 280 279 276 274 271 270 268
333 334 334 334 335 335 334 331 329 330 332 334 333 330 328 329 328 327 326 324 322 319 317 315 313 311 310 309 306 302 299 295 291 289 288 286 283 281 279 277 272 270 270
333 335 335 335 335 336 336 335 334 335 336 336 336 335 333 332 330 328 327 324 322 320 319 318 317 316 314 312 309 305 302 299 295 290 289 289 287 284 281 279 274 271 270
334 335 336 337 338 339 339 339 339 339 339 337 338 337 334 334 334 332 330 329 328 326 325 324 322 320 319 317 313 309 305 302 298 294 293 291 288 285 282 280 276 271 270
338 339 339 341 342 342 341 341 342 343 342 340 339 338 337 338 337 335 334 334 333 331 329 328 326 324 322 321 319 317 314 309 304 300 297 294 291 288 286 283 279 275 271
338 341 343 344 344 344 344 345 345 345 344 343 342 341 341 341 339 338 338 338 336 335 334 333 332 330 328 326 325 323 319 315 311 306 302 299 295 292 290 287 282 278 273
339 342 344 345 345 346 347 347 346 347 346 345 344 345 344 343 342 341 341 340 340 340 340 339 337 335 333 331 330 327 323 319 315 311 307 303 299 297 294 290 286 283 278
339 342 344 345 347 348 348 348 348 348 347 345 345 344 343 342 342 342 343 343 343 344 344 342 340 339 337 335 333 332 328 323 318 315 311 308 305 303 300 296 290 285 280
339 342 344 346 349 350 350 350 349 349 348 347 346 344 344 343 343 344 345 345 346 346 346 345 343 341 339 338 336 335 333 328 323 320 317 313 310 307 304 300 294 287 281
342 344 346 349 350 352 352 351 350 350 349 348 347 347 347 346 346 347 347 347 347 347 347 346 345 344 342 341 339 337 337 335 331 327 324 320 315 311 306 302 299 293 286
345 348 350 353 355 357 356 355 354 354 353 352 351 350 349 347 347 347 347 347 347 347 347 346 345 345 344 344 343 342 341 339 337 335 331 327 321 316 311 305 302 299 294
348 350 351 352 355 356 357 355 357 357 355 354 353 352 351 350 350 349 349 349 349 349 348 347 346 346 346 347 348 347 345 342 340 339 337 334 330 324 317 311 306 302 298
351 353 354 355 356 357 357 358 358 358 357 356 355 355 354 353 352 352 352 351 351 351 351 350 350 351 350 350 350 349 348 346 342 340 339 336 334 331 325 317 311 305 298
354 356 358 358 358 357 358 359 360 360 359 358 358 357 357 356 355 354 354 354 354 353 353 352 352 352 352 351 350 349 349 349 347 344 341 340 338 336 332 328 321 312 302
355 355 357 357 358 358 358 359 0 2 1 0 360 359 359 358 357 357 356 356 356 355 354 354 354 353 353 352 351 351 351 350 350 348 346 344 342 341 339 334 328 321 311
355 356 358 359 359 359 360 1 1 2 2 1 2 2 1 1 360 359 358 357 356 356 355 355 355 355 355 355 354 353 352 352 352 351 350 348 347 345 342 338 334 329 322
355 357 359 359 360 1 2 2 3 3 2 2 3 3 3 2 2 1 360 358 358 358 358 358 358 358 357 357 356 355 354 354 354 353 353 353 352 350 348 345 340 335 330
354 356 357 358 360 1 2 2 3 3 2 3 3 3 3 3 3 2 2 1 1 1 0 0 0 0 0 360 359 358 357 357 357 356 356 355 355 355 354 354 351 345 339
352 354 355 357 358 360 0 1 1 1 2 2 3 3 3 3 3 3 4 3 3 3 2 2 2 2 2 2 1 359 359 359 359 359 359 359 358 358 358 357 355 352 348
348 350 353 355 356 358 359 359 359 360 1 1 2 3 3 3 4 5 5 5 6 5 5 4 4 4 4 3 3 2 2 1 1 2 2 2 2 2 1 0 359 357 354
Height
5761 5759 5757 5754 5751 5749 5746 5744 5741 5738 5735 5732 5729 5727 5725 5722 5719 5716 5713 5710 5707 5704 5700 5698 5695 5693 5690 5688 5686 5684 5682 5681 5679 5679 5677 5676 5675 5675 5674 5674 5674 5674 5675
5758 5755 5753 5750 5747 5744 5742 5739 5736 5733 5730 5727 5724 5722 5719 5716 5713 5710 5706 5703 5700 5697 5693 5690 5688 5685 5682 5680 5677 5675 5673 5671 5670 5669 5668 5667 5666 5665 5664 5664 5664 5664 5664
5755 5752 5749 5746 5743 5740 5737 5734 5731 5728 5725 5722 5719 5717 5714 5711 5708 5704 5700 5697 5694 5690 5687 5684 5681 5678 5675 5672 5669 5667 5664 5662 5661 5660 5659 5658 5657 5656 5655 5655 5654 5654 5654
5751 5748 5745 5742 5739 5736 5733 5731 5727 5724 5721 5718 5715 5712 5709 5706 5702 5699 5695 5691 5687 5684 5680 5677 5674 5671 5667 5664 5661 5658 5656 5654 5652 5650 5649 5648 5647 5646 5645 5644 5644 5644 5644
5748 5745 5742 5739 5736 5733 5730 5727 5723 5720 5716 5713 5710 5707 5704 5701 5698 5694 5690 5686 5682 5678 5674 5671 5667 5663 5660 5656 5653 5650 5647 5645 5643 5641 5640 5638 5637 5635 5634 5634 5634 5634 5634
5746 5743 5740 5737 5733 5730 5726 5723 5720 5716 5713 5710 5707 5704 5700 5697 5693 5689 5685 5681 5677 5673 5669 5665 5661 5657 5652 5649 5645 5642 5639 5636 5634 5632 5630 5628 5627 5626 5625 5624 5623 5623 5624
5743 5740 5737 5734 5730 5727 5723 5720 5717 5713 5710 5707 5704 5700 5697 5693 5689 5685 5681 5677 5672 5668 5663 5659 5654 5649 5645 5641 5637 5633 5629 5626 5624 5622 5620 5618 5616 5615 5614 5613 5612 5612 5613
5741 5738 5735 5731 5728 5724 5721 5717 5714 5710 5707 5704 5700 5697 5693 5689 5685 5681 5676 5671 5666 5661 5657 5652 5647 5642 5637 5633 5629 5625 5621 5617 5614 5612 5610 5608 5606 5604 5603 5602 5602 5602 5602
5739 5736 5733 5730 5726 5722 5719 5715 5711 5708 5704 5701 5697 5694 5690 5686 5681 5676 5672 5666 5661 5655 5650 5645 5640 5635 5630 5625 5621 5616 5612 5608 5605 5602 5600 5598 5596 5594 5593 5592 5592 5592 5592
5737 5734 5731 5728 5724 5720 5717 5713 5709 5706 5702 5699 5695 5691 5686 5682 5677 5672 5667 5661 5655 5650 5644 5639 5633 5628 5622 5617 5613 5608 5604 5600 5596 5594 5591 5589 5587 5585 5584 5583 5582 5582 5582
5736 5733 5729 5726 5722 5718 5715 5711 5708 5704 5701 5697 5693 5688 5683 5678 5673 5668 5662 5656 5650 5645 5639 5633 5627 5621 5616 5611 5606 5601 5596 5592 5589 5586 5584 5581 5579 5577 5575 5574 5573 5572 5572
5734 5731 5728 5725 5721 5717 5714 5710 5706 5703 5699 5695 5691 5686 5681 5675 5670 5664 5658 5652 5646 5640 5634 5628 5621 5616 5610 5605 5600 5595 5590 5586 5582 5579 5577 5574 5572 5570 5568 5566 5564 5563 5563
5733 5730 5727 5724 5720 5717 5713 5709 5705 5701 5697 5693 5688 5683 5678 5673 5667 5661 5655 5649 5642 5636 5629 5623 5617 5611 5605 5600 5595 5590 5585 5581 5577 5574 5571 5568 5565 5563 5560 5558 5556 5555 5555
5731 5728 5726 5723 5719 5716 5712 5708 5704 5700 5696 5691 5686 5681 5676 5670 5664 5658 5652 5646 5639 5633 5626 5619 5613 5606 5601 5595 5590 5585 5580 5576 5572 5568 5565 5561 5558 5556 5553 5551 5549 5548 5547
5729 5727 5724 5721 5718 5715 5711 5707 5703 5699 5694 5689 5685 5679 5674 5668 5662 5656 5650 5643 5636 5630 5623 5616 5609 5603 5598 5592 5586 5581 5576 5571 5567 5563 5559 5555 5552 5549 5546 5544 5542 5540 5540
5728 5726 5723 5720 5717 5714 5710 5706 5702 5697 5692 5688 5682 5677 5671 5666 5659 5653 5647 5640 5634 5627 5620 5614 5607 5601 5595 5589 5583 5578 5573 5567 5562 5558 5553 5549 5546 5543 5540 5538 5536 5534 5533
5727 5725 5722 5719 5716 5713 5709 5705 5701 5696 5691 5686 5680 5675 5669 5663 5657 5651 5644 5638 5631 5624 5618 5611 5604 5598 5592 5586 5580 5575 5569 5564 5558 5553 5549 5544 5540 5537 5534 5531 5529 5527 5526
5726 5724 5721 5718 5715 5712 5708 5704 5700 5695 5690 5685 5679 5673 5667 5661 5655 5648 5642 5635 5629 5622 5615 5609 5602 5596 5589 5583 5578 5572 5566 5560 5555 5550 5545 5540 5535 5531 5528 5526 5523 5522 5520
5725 5723 5720 5718 5715 5711 5707 5703 5699 5694 5689 5683 5677 5671 5665 5659 5653 5646 5640 5633 5626 5620 5613 5606 5600 5593 5587 5581 5575 5570 5564 5558 5552 5546 5541 5536 5531 5527 5523 5521 5519 5517 5515
5724 5722 5720 5717 5714 5710 5706 5702 5698 5693 5688 5682 5676 5670 5664 5658 5651 5645 5638 5631 5625 5618 5611 5605 5598 5592 5585 5579 5573 5567 5561 5555 5549 5543 5537 5532 5527 5523 5519 5517 5515 5513 5511
5723 5722 5719 5716 5713 5710 5706 5702 5697 5693 5687 5681 5675 5669 5663 5656 5650 5643 5637 5630 5624 5617 5610 5603 5596 5590 5584 5577 5571 5565 5559 5553 5546 5540 5534 5529 5524 5520 5516 5513 5511 5509 5507
5723 5721 5719 5716 5713 5709 5706 5701 5697 5692 5687 5681 5675 5669 5662 5656 5649 5643 5636 5629 5622 5615 5608 5602 5595 5588 5582 5576 5570 5563 5557 5551 5544 5538 5532 5526 5521 5517 5514 5510 5508 5506 5504
5722 5720 5718 5715 5712 5709 5705 5701 5697 5692 5687 5681 5675 5669 5662 5656 5649 5642 5635 5628 5621 5614 5607 5600 5594 5587 5581 5574 5568 5562 5556 5549 5542 5536 5530 5525 5520 5515 5512 5508 5506 5503 5501
5721 5719 5717 5714 5712 5709 5705 5701 5697 5692 5687 5681 5675 5669 5663 5656 5649 5642 5635 5628 5621 5614 5607 5600 5593 5586 5580 5574 5567 5561 5554 5547 5541 5535 5529 5523 5518 5514 5510 5507 5504 5502 5499
5720 5718 5716 5714 5711 5708 5704 5700 5696 5692 5686 5681 5675 5669 5663 5656 5649 5642 5635 5628 5621 5613 5607 5600 5593 5586 5580 5573 5567 5560 5553 5547 5540 5534 5528 5522 5518 5513 5510 5506 5503 5500 5498
5719 5717 5715 5713 5710 5707 5703 5700 5696 5691 5686 5681 5675 5669 5663 5656 5649 5642 5635 5628 5621 5614 5607 5600 5594 5587 5580 5573 5567 5560 5553 5546 5540 5534 5528 5523 5518 5514 5510 5506 5503 5500 5497